sat.trackr.live / text

‹ back to catalog

MOHAMMED VI-B

NORAD 43717 · 2018-095A

PAYLOAD ACTIVE UNKNOWN

§ Identity

Operator
Country
MA
Launch date
2018-11-21
Launch site
FRGUI
Launch vehicle
Mass (kg)
RCS (m²)

External: N2YO · Heavens-Above · Gunter

§ Orbital elements

Epoch: 2026-09-20T03:37:45.483168Z

Period
97.49 min
Inclination
97.9474°
Eccentricity
0.0001258
Mean motion
14.77097114 rev/d
Perigee alt
637.6 km
Apogee alt
639.4 km
Semi-major
7,016.6 km
B*
2.7639e-5
RAAN
334.1242°
Arg perigee
101.8003°
Mean anomaly
258.3349°
Rev number
42,220

§ Raw data

MOHAMMED VI-B1 43717U 18095A   26263.15122087  .00000145  00000+0  27639-4 0  99902 43717  97.9474 334.1242 0001258 101.8003 258.3349 14.77097114422207

JSON: /api/v1/satellites/43717 · /tle

For live sub-satellite position, see the globe view (requires WebGL).

§ Visibility from observer

Set your observer location to see the next 7 days of passes ≥ 10°. The values pass through the URL so the page stays shareable.

No JS? Fill the form by hand. The geolocation button needs JavaScript.

§ Radio — SatNOGS DB

ModeDescriptionDownlinkUplink
BPSK Telemetry 2.242 GHz

1 transmitter · refreshed weekly from db.satnogs.org